Location: Navalmoral
(40.4603°N, 4.7686°W)
Time: 13:18:28
(UTC+00:00)

ATLAS 5 CENTAUR R/B - Visible Passes

Search period start: 16 June 2025 00:00
Search period end: 26 June 2025 00:00
Orbit: 387 x 1114 km, 63.3° (Epoch: 15 June)

Date Brightness Start Highest point End Pass type
(mag) Time Alt. Az. Time Alt. Az. Time Alt. Az.
16 Jun 0.9 02:32:30 56° SE 02:32:34 56° ESE 02:35:42 10° NE visible
16 Jun 3.5 04:15:31 10° NW 04:15:48 10° NW 04:16:07 10° NNW visible
17 Jun 2.8 01:50:36 20° E 01:50:36 20° E 01:52:14 10° ENE visible
17 Jun 2.9 03:30:28 11° W 03:32:25 17° NW 03:34:42 10° N visible
18 Jun 1.8 02:48:31 29° WNW 02:49:10 32° NW 02:52:07 10° NNE visible
19 Jun 1.2 02:06:31 56° N 02:06:31 56° N 02:09:13 10° NNE visible
20 Jun 2.8 01:24:29 24° ENE 01:24:29 24° ENE 01:26:02 10° NE visible
20 Jun 3.4 03:05:01 10° WNW 03:06:07 11° NW 03:07:14 10° NNW visible
21 Jun 3.8 00:42:23 10° ENE 00:42:23 10° ENE 00:42:24 10° ENE visible
21 Jun 2.7 02:22:15 19° WNW 02:22:41 19° NW 02:25:10 10° N visible
22 Jun 2.3 01:40:06 32° NNW 01:40:06 32° NNW 01:42:27 10° NNE visible
23 Jun 2.9 00:57:55 25° NNE 00:57:55 25° NNE 00:59:26 10° NNE visible
24 Jun 3.6 00:15:41 13° NE 00:15:41 13° NE 00:16:07 10° NE visible
24 Jun 3.4 01:55:32 12° NW 01:56:11 13° NW 01:57:44 10° NNW visible
25 Jun 3.0 01:13:14 21° NNW 01:13:14 21° NNW 01:15:23 10° N visible
